Regional Weather Roundup
Issued by NWS Upton, NY

Current Version | Previous Version | Text Only | Print | Product List | Glossary On
Versions: 1 2 3 4 5 6 7 8 9 10 11 12 13 14 15 16 17 18 19 20 21 22 23 24 25 26 27 28 29 30 31 32 33 34 35 36 37 38 39 40 41 42 43 44 45 46 47 48 49
000 ASUS41 KOKX 180505 RWROKX REGIONAL WEATHER ROUNDUP NATIONAL WEATHER SERVICE NEW YORK NY 1200 AM EST THU DEC 18 2014 NOTE: "FAIR" INDICATES FEW OR NO CLOUDS BELOW 12,000 FEET WITH NO SIGNIFICANT WEATHER AND/OR OBSTRUCTIONS TO VISIBILITY. NYZ071-072-176-178-NJZ106-104-180600- NEW YORK CITY METRO AREA CITY SKY/WX TMP DP RH WIND PRES REMARKS CENTRAL PARK CLOUDY 42 26 53 W8G18 29.90F LAGUARDIA APRT MOCLDY 42 27 55 W15G23 29.88F KENNEDY INTL MOCLDY 43 26 51 W15 29.89F NEWARK/LIBERTY MOCLDY 40 26 57 W15 29.89F WCI 32 BRNX BOT. GARD N/A N/A N/A N/A W23 29.88F TETERBORO CLOUDY 41 28 60 W6 29.88F $$ NYZ177-179-078>081-180600- LONG ISLAND NEW YORK CITY SKY/WX TMP DP RH WIND PRES REMARKS FARMINGDALE CLOUDY 43 29 57 W12 29.86F ISLIP MOCLDY 42 32 67 NW9 29.84F SHIRLEY PTCLDY 41 31 67 NW14 29.85F WESTHAMPTON MOCLDY 40 30 67 W9 29.85F WCI 34 MONTAUK POINT N/A 44 35 70 W12G20 29.82F $$ NYZ052-065-067-180600- HUDSON VALLEY CITY SKY/WX TMP DP RH WIND PRES REMARKS WHITE PLAINS MOCLDY 40 29 64 NW13G24 29.84F WCI 32 NEWBURGH CLOUDY 39 30 70 NW14 29.87F WCI 31 MONTGOMERY CLOUDY 39 27 62 NW12G17 29.86F WCI 32 POUGHKEEPSIE CLOUDY 41 28 60 W9 29.85F ALBANY CLOUDY 37 29 72 W9 29.85S WCI 30 $$ NJZ001-105-106-008-010-013-015-019>022-104-180600- NEW JERSEY CITY SKY/WX TMP DP RH WIND PRES REMARKS NEWARK/LIBERTY MOCLDY 40 26 57 W15 29.89F WCI 32 TETERBORO CLOUDY 41 28 60 W6 29.88F CALDWELL MOCLDY 39 25 57 W5 29.89F MORRISTOWN N/A 39 27 60 SW6 29.90F WCI 35 SOMERVILLE MOCLDY 38 24 57 W6 29.91S WCI 33 SUSSEX CLOUDY 39 26 59 CALM 29.89F ANDOVER N/A 38 24 57 VRB5 29.89F WCI 34 TRENTON PTCLDY 36 22 56 W7 29.94F WCI 30 MILLVILLE CLEAR 38 25 59 NW12 29.98S WCI 30 ATLANTIC CITY CLEAR 37 25 61 NW10 29.96F WCI 30 WRIGHTSTOWN CLEAR 37 24 59 W13 29.93S WCI 28 TOMS RIVER CLEAR 37 23 56 W13G20 29.94S WCI 29 BELMAR CLEAR 37 23 56 W13 29.91F WCI 29 $$ PAZ047>061-062-071-180600- EASTERN PENNSYLVANIA CITY SKY/WX TMP DP RH WIND PRES REMARKS PHILADELPHIA PTCLDY 39 22 50 W12 29.99S WCI 32 ALLENTOWN CLOUDY 37 21 52 W15G23 29.94F WCI 28 SCRANTON LGT SNOW 35 27 72 W9 29.92S WCI 28 $$ CTZ002-004>006-009-010-012-RIZ004-006-007-MAZ004-011-015-180600- SOUTHERN NEW ENGLAND IN CT CITY SKY/WX TMP DP RH WIND PRES REMARKS BRADLEY INTL CLOUDY 40 29 64 W12 29.81S WCI 33 HARTFORD CLOUDY 39 30 70 VRB6 29.83S WCI 35 DANBURY CLOUDY 39 28 64 W8 29.84F WCI 33 WTRBRY/OXFORD MOCLDY 37 28 70 NW6 29.82F WCI 33 BRIDGEPORT PTCLDY 41 30 65 W7 29.84F MERIDEN CLOUDY 38 32 79 NW3 29.83F NEW HAVEN PTCLDY 44 31 60 W5 29.83F CHESTER FAIR 37 32 81 W5 29.82S WCI 34 GROTON CLEAR 37 34 89 W6 29.81S WCI 32 WILLIMANTIC PTCLDY 38 29 70 VRB5 29.80S WCI 34 IN RI CITY SKY/WX TMP DP RH WIND PRES REMARKS PROVIDENCE CLOUDY 41 30 65 W12 29.76F BLOCK ISLAND MOCLDY 43 30 61 NW10G17 29.79S WESTERLY CLEAR 40 31 70 VRB6 29.80S IN MA CITY SKY/WX TMP DP RH WIND PRES REMARKS BOSTON MOCLDY 41 32 70 W16G24 29.71F WORCESTER CLOUDY 35 30 82 W13G26 29.71F WCI 26 WESTFIELD CLOUDY 40 28 62 NW13G25 29.80R WCI 32 PROVINCETOWN CLOUDY 43 36 75 W21 29.70S NANTUCKET CLOUDY 45 38 76 W14 29.74S $$ ANZ330-335-338-340-345-350-353-355-180600- COASTAL MARINE OBSERVATIONS STATION/POSITION TIME SKY/WX TEMP WIND PRES VSBY WAVE AIR SEA DIR/SP/G HT/PER (UTC) (F) (DEG/KT/KT) (MB) (MI) (FT/S) NY HARB ENTRANCE 0500 42 46 280/ 23/ 25 1011.9 3/ 4 4S FIRE IS 0400 46 N/A 4/ 5 20S FIRE ISLAND 0400 44 50 1011.8 6/ 6 23SW MTP 0500 N/A 5/ 6 HUDSON CANYON 0500 46 55 300/ 25/ 29 1011.0 8/ 7 EXECUTION ROCKS 0500 43 42 270/ 14/ 19 N/A WESTERN LI SOUND 0500 43 310/ 10/ 14 N/A 0 CENTRAL LI SOUND 0400 43 45 280/ 17/ 19 N/A 2/ 4 EASTERN LI SOUND NOT AVBL ROBBINS REEF 0500 41 280/ 14/ 17 1010.9 $$ >>>>>>>>>>>>>>>>>>>>>>>>>>>> KEY <<<<<<<<<<<<<<<<<<<<<<<<<<< > < > SKY/WX - SKY CONDITION/PRESENT WEATHER < > TMP - TEMPERATURE IN FAHRENHEIT < > DP - DEWPOINT IN FAHRENHEIT < > RH - RELATIVE HUMIDITY IN PERCENT < > WIND - DIRECTION AND SPEED IN MPH < > PRES - MEAN SEA LEVEL PRESSURE IN INCHES OF HG < > WCI - WIND CHILL INDEX < > VSB - VISIBILITY IN MILES < > HX - HEAT INDEX < > TC - TEMPERATURE IN CELSIUS < > VRB - VARIABLE WIND DIRECTION < > < >>>>>>>>>>>>>>>>>>>>>>>>>>>> KEY <<<<<<<<<<<<<<<<<<<<<<<<<<<

USA.gov is the U.S. government's official web portal to all federal, state and local government web resources and services.